Wind_Speed
43 43 43 43 43 43 44 44 44 44 43 43 43 44 44 44 44 43 43 43 44 44 44 45 46 46 46 47 46 46 46 46 46 47 47 47 46 46
44 44 44 44 44 44 44 45 46 46 44 44 44 45 46 46 46 46 45 46 46 46 47 47 48 49 49 49 49 49 49 49 49 49 49 49 49 50
44 44 44 44 45 45 45 46 47 47 47 46 47 47 48 48 47 48 48 49 49 49 50 50 50 50 50 51 51 51 51 51 51 52 52 52 52 52
44 44 45 46 46 46 46 47 48 49 49 48 49 50 50 50 50 51 51 51 52 52 53 53 52 52 52 53 53 53 53 54 54 54 55 55 54 54
46 45 45 46 47 47 47 48 49 49 50 51 51 51 52 52 52 52 52 53 54 55 56 57 56 55 54 54 55 56 56 56 56 56 56 56 56 55
47 47 46 47 48 49 49 49 49 50 51 52 52 52 53 53 54 54 55 55 56 57 57 58 58 57 56 57 57 57 57 57 57 57 56 56 56 55
48 48 49 49 49 50 50 50 51 52 52 53 54 55 55 55 55 56 57 56 56 58 58 57 57 56 56 57 58 58 58 58 57 57 56 56 56 56
49 49 50 50 51 51 52 53 53 54 55 56 56 56 56 56 56 56 57 57 56 56 56 56 57 57 57 57 58 58 58 57 57 56 56 56 56 56
50 51 51 52 53 54 55 55 55 56 57 57 57 57 56 57 57 57 56 56 56 56 56 56 57 56 55 56 56 57 57 57 57 57 57 56 56 56
50 51 52 53 55 55 56 56 56 56 57 57 57 57 57 57 57 57 56 56 55 55 56 55 55 55 54 54 55 56 56 56 56 57 57 56 55 54
51 52 53 53 54 55 56 56 56 56 56 57 56 56 56 56 57 56 56 56 55 55 56 56 55 54 53 53 54 55 55 55 55 55 55 54 53 53
52 53 54 54 55 55 55 55 56 56 56 56 55 56 56 56 56 56 56 56 55 55 55 56 55 54 53 52 53 54 54 54 53 53 52 52 52 51
52 53 53 53 54 55 55 55 55 55 55 55 55 56 56 56 57 57 57 57 56 56 56 56 56 55 54 53 52 53 53 52 52 51 51 51 50 50
52 52 52 53 54 54 54 54 53 53 53 53 54 55 55 55 55 56 56 56 56 56 56 57 56 56 54 53 51 51 51 51 51 50 50 50 50 49
52 52 52 53 53 54 54 54 54 53 53 53 53 53 54 54 54 54 54 54 54 54 55 55 54 53 52 51 49 48 49 49 49 48 48 47 47 46
52 52 52 53 53 53 53 53 54 53 52 52 52 52 53 53 53 52 51 51 51 50 51 51 50 50 49 48 48 48 47 47 46 46 45 44 43 43
50 50 50 50 51 51 51 52 52 52 52 52 51 50 50 49 49 48 48 48 47 47 48 49 49 48 48 47 46 46 45 43 43 42 42 42 42 43
48 49 49 49 49 50 50 50 50 50 51 51 50 49 48 47 46 45 45 45 45 45 46 46 47 47 46 45 45 44 43 42 41 41 41 41 41 42
48 48 48 48 48 48 48 48 48 48 48 48 47 46 45 44 44 43 44 44 43 43 44 44 45 45 45 43 42 43 41 40 40 40 40 40 40 41
45 45 45 46 47 47 46 45 45 45 45 44 44 43 43 43 42 42 42 43 43 42 42 43 43 44 44 42 40 40 40 40 40 40 40 41 41 41
43 44 44 44 44 44 43 43 42 42 41 41 41 41 42 42 41 41 41 42 42 42 41 41 42 42 42 40 39 39 39 40 41 40 40 40 40 39
42 42 42 43 42 42 41 40 40 40 40 40 40 40 41 41 40 40 40 41 41 41 41 41 41 41 40 39 39 38 38 39 40 40 39 39 39 37
41 41 41 41 41 40 39 39 39 39 39 39 39 40 40 40 39 39 39 40 40 39 39 39 39 39 39 39 38 38 37 37 37 38 38 37 36 34
Wind_Direction
252 254 256 258 261 263 264 265 266 267 270 270 270 272 272 273 275 275 276 278 278 277 277 277 277 278 279 280 281 281 281 282 282 282 283 283 283 283
253 256 257 259 261 263 264 265 267 268 269 270 270 271 272 273 274 274 275 276 277 277 277 277 278 278 280 279 280 281 281 281 281 281 282 283 282 283
254 256 258 260 262 264 265 266 267 268 269 270 270 271 272 272 273 273 274 275 276 277 278 278 278 279 280 280 280 280 281 281 280 281 282 282 282 282
254 256 258 259 262 264 265 267 268 269 269 271 272 273 273 273 273 273 274 275 276 277 278 278 278 279 279 281 281 281 281 281 280 281 280 281 282 281
255 257 259 260 261 263 265 267 268 269 270 271 273 274 274 274 274 274 275 275 276 277 278 278 278 279 280 280 280 281 281 281 281 280 280 280 281 281
256 258 260 262 263 265 266 267 268 270 271 272 274 274 275 275 275 275 276 276 277 277 278 278 279 279 279 279 280 280 281 280 280 280 280 280 280 280
257 259 261 263 265 266 267 268 270 271 272 274 275 275 276 276 277 276 276 276 277 278 279 279 279 278 278 279 279 280 280 279 279 279 279 280 280 280
258 260 262 264 265 267 268 270 271 273 273 274 275 276 276 276 277 277 277 277 277 278 279 279 279 278 279 280 280 280 280 279 278 279 279 280 280 280
259 261 263 265 266 268 270 270 271 273 274 274 275 276 276 276 277 277 278 278 279 278 278 278 279 280 281 281 281 281 281 281 280 279 280 280 280 279
262 264 265 266 267 269 270 271 272 273 273 274 275 276 276 276 276 277 277 278 278 278 279 279 279 281 282 282 282 282 281 281 281 280 280 280 280 280
265 266 267 268 269 270 271 271 271 272 273 273 274 275 275 276 276 276 277 278 277 278 279 279 280 281 282 282 282 281 281 282 281 280 280 280 280 280
266 268 268 269 269 270 271 271 272 272 273 273 273 273 274 275 275 276 276 277 278 278 278 279 280 281 281 281 280 280 281 281 281 281 280 281 280 279
267 268 269 269 270 270 271 272 273 273 273 273 273 274 275 276 277 277 277 278 279 279 279 280 280 281 282 281 280 280 281 280 280 280 280 280 279 278
268 269 269 270 271 272 272 273 273 274 274 274 274 275 276 277 278 278 278 278 279 280 280 280 280 281 281 281 281 280 280 279 279 279 279 279 279 278
269 269 271 272 272 273 273 273 274 274 275 275 276 276 277 278 277 277 277 278 279 279 280 280 280 280 281 281 282 281 280 279 279 279 278 279 279 278
270 271 271 272 273 273 273 274 274 275 276 277 277 277 277 277 276 276 276 276 277 277 278 279 280 280 280 281 282 282 281 280 279 278 278 278 278 278
270 271 272 272 273 273 274 274 274 275 275 277 277 277 277 276 275 274 275 275 276 276 277 278 279 280 281 282 282 282 281 280 278 277 276 276 277 278
271 271 271 272 273 274 274 274 275 276 276 276 276 277 276 275 275 275 275 276 276 277 277 278 279 279 279 280 281 281 281 278 276 276 276 275 276 277
272 272 272 272 273 274 274 275 275 275 275 276 276 275 275 275 275 275 277 277 278 278 279 279 279 279 279 279 279 280 279 278 276 276 276 277 277 278
272 272 273 273 274 274 274 274 274 274 274 274 275 275 275 275 275 277 278 278 278 278 279 279 280 280 280 279 277 277 278 278 277 276 277 278 279 279
272 273 274 275 274 274 274 274 274 274 274 274 275 275 274 275 276 278 278 278 277 278 278 279 280 280 278 277 276 277 278 278 278 278 278 278 278 279
274 274 275 276 275 274 274 273 273 274 274 274 274 274 275 276 277 278 278 278 277 278 278 279 279 277 276 276 277 277 278 278 278 278 279 279 279 278
275 275 276 276 274 273 272 273 274 274 275 275 276 277 277 277 278 278 279 278 278 278 278 278 277 275 275 276 277 277 278 278 277 277 278 279 279 278
Height
5737 5739 5740 5742 5743 5744 5745 5745 5747 5747 5748 5748 5748 5747 5747 5746 5746 5745 5744 5743 5742 5741 5739 5738 5737 5736 5735 5734 5732 5731 5730 5728 5727 5725 5723 5721 5719 5717
5727 5729 5730 5732 5733 5734 5734 5735 5735 5736 5737 5737 5737 5736 5735 5735 5734 5734 5733 5732 5731 5729 5728 5727 5726 5724 5723 5722 5720 5719 5717 5716 5714 5712 5710 5708 5706 5704
5717 5718 5720 5721 5722 5723 5723 5724 5724 5724 5725 5726 5725 5724 5724 5723 5722 5722 5721 5720 5719 5717 5716 5715 5713 5712 5710 5709 5707 5705 5704 5702 5700 5698 5696 5694 5692 5690
5706 5708 5709 5710 5711 5712 5712 5712 5712 5712 5712 5713 5713 5712 5711 5711 5710 5709 5708 5707 5706 5704 5703 5701 5700 5698 5696 5695 5693 5691 5689 5687 5685 5683 5681 5679 5677 5674
5695 5697 5698 5699 5700 5700 5700 5700 5700 5700 5700 5700 5700 5699 5698 5697 5696 5696 5694 5693 5692 5690 5688 5686 5685 5683 5681 5680 5677 5675 5673 5671 5669 5667 5665 5662 5660 5658
5683 5685 5686 5687 5688 5688 5688 5688 5687 5687 5686 5686 5686 5686 5685 5683 5682 5681 5680 5679 5677 5675 5673 5671 5669 5667 5665 5663 5662 5659 5657 5655 5653 5650 5648 5646 5644 5642
5671 5672 5673 5674 5675 5675 5675 5675 5674 5673 5673 5672 5671 5671 5670 5668 5667 5665 5664 5663 5662 5659 5658 5656 5653 5651 5649 5647 5645 5642 5640 5638 5636 5634 5632 5630 5627 5625
5658 5660 5660 5661 5661 5661 5661 5660 5660 5659 5658 5657 5656 5655 5654 5652 5651 5649 5648 5647 5647 5645 5642 5641 5637 5635 5633 5630 5627 5625 5623 5621 5619 5617 5615 5613 5611 5609
5645 5646 5647 5647 5647 5647 5646 5645 5644 5643 5642 5641 5640 5639 5638 5637 5635 5633 5632 5630 5629 5627 5625 5625 5622 5619 5616 5613 5610 5608 5606 5604 5601 5600 5598 5596 5594 5592
5631 5631 5632 5632 5631 5631 5630 5630 5628 5627 5626 5625 5624 5623 5621 5619 5617 5616 5615 5614 5613 5611 5607 5608 5606 5604 5601 5598 5594 5591 5589 5587 5585 5583 5581 5579 5577 5575
5616 5616 5616 5616 5616 5615 5614 5614 5613 5611 5609 5608 5607 5605 5604 5602 5600 5599 5598 5597 5597 5596 5592 5591 5590 5588 5587 5584 5579 5576 5573 5571 5568 5566 5564 5562 5561 5559
5602 5601 5601 5600 5600 5598 5597 5597 5596 5596 5594 5592 5591 5589 5588 5586 5584 5583 5581 5580 5579 5580 5577 5574 5573 5571 5571 5570 5565 5561 5558 5555 5553 5550 5548 5546 5544 5543
5586 5586 5585 5584 5583 5582 5581 5581 5580 5579 5578 5577 5575 5574 5573 5571 5569 5567 5565 5563 5562 5562 5560 5558 5557 5554 5552 5553 5552 5547 5543 5540 5538 5535 5533 5531 5529 5528
5570 5570 5569 5568 5567 5566 5566 5565 5564 5563 5562 5561 5560 5559 5557 5556 5554 5551 5549 5547 5546 5545 5543 5541 5540 5539 5537 5536 5535 5533 5529 5525 5523 5521 5519 5516 5514 5512
5554 5554 5553 5552 5551 5551 5550 5549 5548 5547 5547 5546 5545 5543 5542 5540 5538 5536 5534 5532 5531 5529 5526 5524 5523 5522 5520 5519 5518 5517 5514 5512 5508 5506 5504 5502 5500 5499
5538 5538 5538 5537 5536 5535 5534 5533 5532 5532 5531 5530 5529 5527 5525 5524 5522 5520 5519 5517 5516 5515 5512 5509 5508 5506 5506 5504 5502 5501 5499 5497 5495 5492 5490 5488 5486 5485
5524 5523 5523 5522 5521 5521 5520 5519 5517 5517 5516 5515 5513 5512 5510 5509 5507 5505 5504 5503 5502 5501 5500 5497 5494 5492 5491 5489 5488 5486 5484 5482 5480 5478 5477 5476 5475 5473
5509 5509 5508 5507 5507 5506 5505 5504 5502 5501 5500 5499 5498 5497 5496 5495 5493 5492 5491 5489 5488 5487 5486 5484 5482 5480 5478 5476 5474 5472 5471 5469 5468 5466 5465 5464 5464 5462
5494 5494 5493 5493 5492 5491 5490 5489 5488 5487 5486 5485 5484 5483 5482 5481 5480 5479 5478 5477 5475 5474 5472 5470 5469 5467 5466 5466 5464 5459 5458 5457 5456 5455 5453 5452 5451 5450
5480 5480 5479 5479 5478 5477 5476 5475 5475 5474 5472 5472 5471 5470 5469 5468 5467 5466 5465 5464 5463 5461 5460 5458 5456 5454 5452 5452 5451 5449 5446 5444 5443 5443 5441 5440 5439 5437
5467 5466 5466 5465 5465 5464 5463 5462 5461 5460 5460 5459 5458 5457 5457 5456 5455 5454 5453 5451 5450 5449 5448 5446 5443 5441 5439 5438 5439 5438 5435 5432 5431 5430 5429 5428 5427 5426
5454 5454 5453 5452 5451 5450 5450 5449 5449 5448 5448 5447 5446 5446 5445 5444 5443 5442 5440 5439 5438 5436 5435 5434 5431 5429 5428 5427 5426 5426 5425 5422 5420 5418 5416 5415 5414 5414
5442 5441 5441 5439 5439 5438 5438 5438 5437 5437 5436 5436 5435 5434 5433 5432 5431 5429 5428 5427 5425 5424 5423 5421 5420 5418 5416 5415 5414 5414 5413 5411 5409 5408 5406 5404 5403 5402